Columbia Gorge Regional the Dalles Municipal Airport
KDLS : now visible

Airfield :











YOU CAN JOIN US ON...

 
LOGIN :

Register | Disclaimer

   EN    FR    IT 

 









Legend :    VFR   Marginal VFR   IFR   Intensive IFR   Very Intensive IFR
Visi :
Ceiling :
>= 8 km
>= 3000ft
5 to 8 km
1000 to 3000 ft
1500m to 5 km
500 to 1000 ft
800 to 1500m
200 to 500 ft
< 800m
< 200 ft
Symbols :   Thunderstorms  Fog  Heavy snow  Heavy precipitations  Wind > 20 kt






- Airport Elevation : 247 ft


KDLS - Columbia Gorge Regional the Dalles Municipal

CURRENT METAR :
  • 142253Z AUTO VRB05KT 10SM CLR 32/M01 A3000 RMK AO2 SLP155 T03221006

EXPIRED METARs :
  • 142153Z AUTO VRB04KT 10SM CLR 32/01 A3002 RMK AO2 SLP161 T03220011
  • 142053Z AUTO VRB05KT 10SM CLR 32/06 A3003 RMK AO2 SLP167 T03170061 58016

TAF KDLS
Valid from the 14 at 18:00 until the 15 at 18:00 UTC


141737Z 1418/1518 32010G16KT P6SM SKC
FM150700 31007KT P6SM SKC
FM151730 32014G22KT P6SM SKC
KZSE FIR / North America



MET'MAP, your aeronautical weather chart ! - Copyright ORBIFLY December 2007 - Disclaimer

ORBIFLY MET'MAP TEAM :

Programming & Development : Alexandra Zaïnal
Concept & original design : Baudouin d'Aumeries
Assistance for programming : Marc-Olivier Méhu
Technical & hardware support : Manuel Goepfert

Contact : metmap@orbifly.com




SOURCES & CREDITS :

   NOAA       Earth
Advisory